Regional Weather Roundup
Issued by NWS Kansas City/Pleasant Hill, MO

Home | Current Version | Previous Version | Graphics & Text | Print | Product List | Glossary Off
Versions: 1 2 3 4 5 6 7 8 9 10 11 12 13 14 15 16 17 18 19 20 21 22 23 24 25 26 27 28 29 30 31 32 33 34 35 36 37 38 39 40 41 42 43 44 45 46 47 48 49 50

000
ASUS43 KEAX 281204
RWREAX

WEATHER ROUNDUP FOR EASTERN KANSAS AND NORTHWEST MISSOURI
NATIONAL WEATHER SERVICE KANSAS CITY/PLEASANT HILL MO
700 AM CDT MON JUL 28 2014

KSZ040-057-103>105-MOZ028-029-037-043-281300-
...KANSAS CITY METROPOLITAN AREA...

CITY           SKY/WX    TMP DP  RH WIND       PRES   REMARKS
K.C. INTL      PTCLDY    60  57  89 NW7       30.19R
6HR MIN TEMP:  59; 6HR MAX TEMP:  65;

K.C. DOWNTOWN  CLEAR     64  58  80 NW5       30.18R
6HR MIN TEMP:  63; 6HR MAX TEMP:  71;

LEES SUMMIT    CLEAR     62  57  83 CALM      30.19R
6HR MIN TEMP:  60; 6HR MAX TEMP:  69;

OLATHE - IXD   CLEAR     61  58  90 NW8       30.20R
6HR MIN TEMP:  59; 6HR MAX TEMP:  64;

OLATHE - OJC   CLEAR     63  57  81 N5        30.19R
6HR MIN TEMP:  63; 6HR MAX TEMP:  70;

LAWRENCE       CLEAR     60  56  86 NW8       30.20R

$$

MOZ001>008-011>017-020>025-030>033-038>040-044>046-053-054-281300-
...NORTHERN AND CENTRAL MISSOURI...

CITY           SKY/WX    TMP DP  RH WIND       PRES   REMARKS
ST. JOSEPH     CLEAR     59  57  93 N6        30.20R
6HR MIN TEMP:  57; 6HR MAX TEMP:  63;

MOSBY          SUNNY     61  57  88 NW6       30.18R
WHITEMAN AFB   CLEAR     62  49  63 NW7       30.15R
6HR MIN TEMP:  61; 6HR MAX TEMP:  67;

CLINTON        CLEAR     61  57  88 CALM      30.16R
SEDALIA        CLEAR     62  57  83 NW6       30.15R
6HR MIN TEMP:  61; 6HR MAX TEMP:  66;

WARSAW         NOT AVBL
MARSHALL       CLEAR     64  61  88 NW7       30.15R
CHILLICOTHE      N/A     63  57  81 VRB5      30.17R
6HR MIN TEMP:  63; 6HR MAX TEMP:  67;

KIRKSVILLE     MOCLDY    61  58  90 NW7       30.14R
6HR MIN TEMP:  60; 6HR MAX TEMP:  63;


$$

MOZ041-047>049-056>058-063>065-088>090-097-281300-
...EASTERN AND SOUTHERN MISSOURI...

CITY           SKY/WX    TMP DP  RH WIND       PRES   REMARKS
ST. LOUIS INTL SUNNY     68  60  75 NW8       30.07R
6HR MIN TEMP:  65; 6HR MAX TEMP:  72;

SPIRIT OF STL  CLEAR     65  59  81 NW5       30.06R
COLUMBIA       CLEAR     62  58  86 NW8       30.12R
JEFFERSON CITY CLEAR     64  58  80 NW5       30.11R
HANNIBAL       CLEAR     64  61  88 N6        30.10R
ROLLA          CLEAR     61  56  83 NW8       30.10R
LEBANON        CLEAR     61  57  88 W5        30.15R
OSAGE BEACH    CLEAR     64  55  72 NW5       30.13R
SPRINGFIELD    CLEAR     61  57  87 N7        30.16R
BRANSON        PTCLDY    63  57  82 CALM      30.17R
NEVADA         PTCLDY    61  57  88 N5        30.19R
JOPLIN         CLEAR     60  58  92 N6        30.18R
WEST PLAINS    CLEAR     64  57  78 NW6       30.14R

$$

IAZ060-094-KSZ022-034>040-054-083-096-NEZ052-066-093-281300-
...KANSAS...SOUTHEAST NEBRASKA AND IOWA...

CITY           SKY/WX    TMP DP  RH WIND       PRES   REMARKS
TOPEKA         CLEAR     63  58  83 N8        30.22R
6HR MIN TEMP:  62; 6HR MAX TEMP:  69;

MANHATTAN      CLEAR     63  57  81 CALM      30.24R
EMPORIA        PTCLDY    61  57  87 N7        30.22R
CHANUTE        CLEAR     62  58  86 N7        30.20R
WICHITA        MOCLDY    68  57  68 NE6       30.22R
OMAHA          PTCLDY    58  55  90 N5        30.23R
LINCOLN        CLEAR     60  54  80 NW7       30.27R
LAMONI         MOCLDY    61  58  90 N9        30.17R
DES MOINES     PTCLDY    61  58  90 NW7       30.17R

$$




USA.gov is the U.S. government's official web portal to all federal, state and local government web resources and services.